Location: Unspecified
(0.0000°N, 0.0000°E)
Time: 22:41:49
(UTC+02:00)

Cosmos 1125 Rocket - Visible Passes

Search period start: 30 April 2016 00:00
Search period end: 10 May 2016 00:00
Orbit: 758 x 781 km, 74.0° (Epoch: 29 April)

Date Brightness Start Highest point End Pass type
(mag) Time Alt. Az. Time Alt. Az. Time Alt. Az.
02 May 6.2 22:46:38 10° NNW 22:47:03 12° NNW 22:47:03 12° NNW visible
03 May 5.3 22:09:54 10° N 22:11:52 23° N 22:11:52 23° N visible
04 May 4.7 21:33:45 10° NNE 21:36:44 28° NE 21:36:44 28° NE visible
05 May 5.0 20:58:24 10° NE 21:01:42 18° ENE 21:01:42 18° ENE visible
05 May 5.7 22:39:24 10° NW 22:42:03 22° WNW 22:42:03 22° WNW visible
06 May 4.1 22:02:00 10° NNW 22:07:05 53° W 22:07:05 53° W visible
07 May 3.4 21:25:16 10° N 21:30:33 76° ENE 21:32:11 45° SSE visible
08 May 4.1 20:49:07 10° NNE 20:53:56 37° ENE 20:57:21 18° SE visible
08 May 6.2 22:33:29 10° WNW 22:35:45 13° WSW 22:37:43 11° SW visible
09 May 5.5 21:54:46 10° NW 21:59:07 26° WSW 22:02:55 12° SSW visible
